Meridian, MS

11:19 AM CDT on September 29, 2016 (GMT -0500)
Key

Weather History for KMEI - March, 2013

Change the Weather History Date:

Saturday, March 16, 2013

  Actual Average Record
Temperature  
Mean Temperature 62 °F 56 °F  
Max Temperature 77 °F 69 °F 87 °F (1982)
Min Temperature 46 °F 42 °F 23 °F (1988)
Degree Days  
Heating Degree Days 3 10  
Month to date heating degree days 250 184  
Since 1 July heating degree days 2137 2281  
Cooling Degree Days 0 1  
Month to date cooling degree days 0 8  
Year to date cooling degree days 16 15  
Growing Degree Days 12 (Base 50)    
Moisture  
Dew Point 47 °F    
Average Humidity 65    
Maximum Humidity 93    
Minimum Humidity 36    
Precipitation  
Precipitation 0.00 in 0.17 in 2.72 in (1973)
Month to date precipitation 1.37 2.86  
Year to date precipitation 20.20 13.59  
Sea Level Pressure  
Sea Level Pressure 30.00 in    
Wind  
Wind Speed 9 mph (SSW)    
Max Wind Speed 21 mph    
Max Gust Speed 28 mph    
Visibility 10 miles    
Events      
T = Trace of Precipitation, MM = Missing Value Source: NWS Daily Summary

Daily Weather History Graph

Daily Weather History Graph

Search for Another Location

Airport or City:

Trip Planner

Search our weather history database for the weather conditions in past years. The results will help you decide how hot, cold, wet, or windy it might be!

Date:

Astronomy

Mar. 16, 2013 Rise Set
Actual Time 7:03 AM CDT 7:03 PM CDT
Civil Twilight 6:39 AM CDT 7:28 PM CDT
Nautical Twilight 6:10 AM CDT 7:56 PM CDT
Astronomical Twilight 5:42 AM CDT 8:25 PM CDT
Moon 9:50 AM CDT (3/16) 11:54 PM CDT (3/16)
Length of Visible Light 12h 49m
Length of Day
12h 00m
Waxing Crescent, 23% of the Moon is Illuminated
Mar 16
Waxing Crescent
Mar 19
First Quarter
Mar 27
Full
Apr 2
Last Quarter
Apr 10
New

Hourly Weather History & Observations

Time (CDT) Temp. Windchill Dew Point Humidity Pressure Visibility Wind Dir Wind Speed Gust Speed Precip Events Conditions
12:58 AM 55.0 °F - 42.1 °F 62% 30.04 in 10.0 mi South 12.7 mph - N/A   Clear
1:58 AM 54.0 °F - 43.0 °F 66% 30.04 in 10.0 mi SSW 9.2 mph - N/A   Clear
2:58 AM 51.1 °F - 43.0 °F 74% 30.04 in 10.0 mi South 9.2 mph - N/A   Clear
3:58 AM 48.0 °F - 42.1 °F 80% 30.03 in 10.0 mi SSW 8.1 mph - N/A   Clear
4:58 AM 48.0 °F - 42.1 °F 80% 30.03 in 10.0 mi SSW 8.1 mph - N/A   Clear
5:58 AM 48.0 °F - 44.1 °F 86% 30.04 in 10.0 mi SSW 5.8 mph - N/A   Clear
6:58 AM 46.0 °F 41.9 °F 44.1 °F 93% 30.05 in 10.0 mi SSW 8.1 mph - N/A   Clear
7:58 AM 48.9 °F - 46.0 °F 90% 30.06 in 10.0 mi SSW 6.9 mph - N/A   Clear
8:58 AM 55.0 °F - 48.9 °F 80% 30.06 in 10.0 mi SSW 10.4 mph - N/A   Clear
9:58 AM 62.1 °F - 51.1 °F 67% 30.07 in 10.0 mi SW 15.0 mph 24.2 mph N/A   Clear
10:58 AM 66.9 °F - 50.0 °F 54% 30.06 in 10.0 mi WSW 8.1 mph 23.0 mph N/A   Clear
11:58 AM 70.0 °F - 46.9 °F 44% 30.05 in 10.0 mi WSW 12.7 mph 21.9 mph N/A   Clear
12:58 PM 72.0 °F - 48.0 °F 43% 30.03 in 10.0 mi SW 10.4 mph 21.9 mph N/A   Clear
1:58 PM 75.0 °F - 48.0 °F 38% 29.99 in 10.0 mi SW 15.0 mph 21.9 mph N/A   Clear
2:58 PM 75.9 °F - 46.9 °F 36% 29.96 in 10.0 mi SW 11.5 mph 20.7 mph N/A   Clear
3:58 PM 75.9 °F - 48.0 °F 37% 29.93 in 10.0 mi SSW 11.5 mph 20.7 mph N/A   Clear
4:58 PM 75.9 °F - 46.9 °F 36% 29.92 in 10.0 mi SSW 11.5 mph - N/A   Clear
5:58 PM 73.9 °F - 46.0 °F 37% 29.92 in 10.0 mi SSW 10.4 mph - N/A   Clear
6:58 PM 69.1 °F - 48.0 °F 47% 29.92 in 10.0 mi SSW 8.1 mph - N/A   Clear
7:58 PM 63.0 °F - 51.1 °F 65% 29.94 in 10.0 mi SSW 3.5 mph - N/A   Clear
8:58 PM 59.0 °F - 51.1 °F 75% 29.94 in 10.0 mi South 4.6 mph - N/A   Clear
9:58 PM 55.9 °F - 48.9 °F 77% 29.96 in 10.0 mi South 8.1 mph - N/A   Clear
10:58 PM 57.9 °F - 51.1 °F 78% 29.98 in 10.0 mi South 8.1 mph - N/A   Clear
11:58 PM 55.0 °F - 51.1 °F 86% 29.97 in 10.0 mi South 8.1 mph - N/A   Clear